Flag for US Minor Outlying Islands

Past Weather in Baker Island, US Minor Outlying Islands — Yesterday and Last 2 Weeks

Now
84 °F

Passing clouds.


Feels Like: 92 °F
Forecast: 83 / 78 °F
Wind: 2 mph from North

Location: Funafuti
Current Time: Sep 22, 2020 at 11:12:20 pm
Latest Report: Sep 22, 2020 at 10:00 pm
Visibility: N/A
Pressure29.86 "Hg
Humidity: 74%
Dew Point: 75 °F
Location of Baker IslandLocation

Past Weather in Baker Island — Graph

°F

Baker Island Temperature Yesterday

Maximum temperature yesterday: 90 °F (at 12:00 pm)
Minimum temperature yesterday: 77 °F (at 4:00 pm)
Average temperature yesterday: 83 °F

High & Low Weather Summary for the Past Weeks

 TemperatureHumidityPressure
High95 °F (Sep 11, 2:00 pm)100% (Sep 21, 4:00 pm)29.92 "Hg (Sep 21, 4:00 pm)
Low77 °F (Sep 18, 4:00 pm)53% (Sep 11, 2:00 pm)29.53 "Hg (Sep 13, 3:00 am)
Average84 °F77%29.82 "Hg
* Reported Sep 7 10:00 pm — Sep 22 10:00 pm, Baker Island. Weather by CustomWeather, © 2020

Note: Actual official high and low records may vary slightly from our data, if they occured in-between our weather recording intervals... More about our weather records

Baker Island Weather History for the Previous 24 Hours

Scroll right to see more
 ConditionsComfort  
Time TempWeatherWind HumidityBarometerVisibility
10:00 pm
Tue, Sep 22
84 °FPassing clouds.2 mph74%29.86 "HgN/A
9:00 pm84 °FPassing clouds.2 mph74%29.86 "HgN/A
8:00 pm84 °FPassing clouds.6 mph74%29.86 "HgN/A
7:00 pm84 °FPassing clouds.2 mph79%29.83 "HgN/A
6:00 pm84 °FPassing clouds.6 mph79%29.80 "HgN/A
5:00 pm86 °FPassing clouds.7 mph70%29.80 "HgN/A
4:00 pm88 °FPassing clouds.6 mph70%29.77 "HgN/A
3:00 pm90 °FPassing clouds.6 mph63%29.80 "HgN/A
2:00 pm88 °FPassing clouds.7 mph70%29.80 "HgN/A
1:00 pm88 °FPassing clouds.7 mph66%29.80 "HgN/A
12:00 pm90 °FPassing clouds.8 mph67%29.83 "HgN/A
11:00 am90 °FPassing clouds.7 mph67%29.83 "HgN/A
10:00 am88 °FPassing clouds.7 mph66%29.86 "HgN/A
9:00 am88 °FOvercast.5 mph66%29.86 "HgN/A
8:00 am86 °FOvercast.6 mph66%29.86 "HgN/A
7:00 am84 °FBroken clouds.6 mph70%29.86 "HgN/A
6:00 am82 °FPartly sunny.5 mph79%29.83 "HgN/A
5:00 am82 °FPassing clouds.5 mph84%29.80 "HgN/A
4:00 am82 °FPassing clouds.2 mph74%29.80 "HgN/A
3:00 am79 °FPartly cloudy.2 mph94%29.80 "HgN/A
2:00 am79 °FPassing clouds.6 mph84%29.86 "HgN/A
12:00 am79 °FPassing clouds.5 mph89%29.86 "HgN/A
11:00 pm
Mon, Sep 21
82 °FPartly cloudy.7 mph84%29.86 "HgN/A
Weather by CustomWeather, © 2020

See weather overview